DMSP 5D-2 F13 DEB, 40401

Orbit data source: Space-Track

DMSP 5D-2 F13 DEB, 40401 is space debris in SSO originally from a launch on Fri, 24 Mar 1995 UTC launched from the Air Force Western Test Range (AFWTR). Debris objects in space refer to the collection of defunct objects orbiting the Earth. Examples of debris include non-operational satellites, rocket bodies, and fragments generated from explosions, collisions, or faulty payload assembly.

Loading next visibility...
Identifier
40401, 1995-015N
Orbit
SSO
Country
Flag of USUS
Related business
Manufacturer
Unknown
Mission
Spacecraft
Bus & Motor
Unknown
Mass
Unknown
Launch date (UTC)
1995-03-24 (31 years ago)
Launch vehicle
Unknown
Launch site
Air Force Western Test Range (AFWTR)
Object type
Payload
Rocket body
Debris
Shape & HBR
Unknown shape, 0.1 m
Radar Cross Section
Small (<0.1 m²)

Expand to show TLE details & history
Last TLE update: 9 hours ago

TLE from 9 hours ago
0 DMSP 5D-2 F13 DEB
1 40401U 95015N   25289.16610587  .00004316  00000-0  20713-2 0  9998
2 40401  98.9623 261.3679 0052309  98.5319 262.1788 14.18728002546042
Epoch: 2025-10-16T03:59Z
TLE epoch observation values (Epoch: 2025-10-16T03:59:11.547Z)
Latitude
-0.00006°
Longitude
176.64006°
Altitude
837.888 km
Speed
7.431 km/s
True Right ascension
17h 25m 28s
True Declination
0° 00' 00"
Sunlit
Object was in daylight at epoch
Visualization orbit readout
Latitude
Unknown
Longitude
Unknown
Altitude
Unknown
Speed
Unknown
Apparent Right ascension
Unknown
Apparent Declination
Unknown
Sunlit
N/A
Visualization observer readout
Local Sidereal Time
07:49:40
Azimuth
Unknown
Elevation
Unknown
Doppler factor
Unknown
Orbital elements
Apogee altitude
864.519 km
Perigee altitude
789.142 km
Semi-major axis
7,204.967 km
Eccentricity
0.00523
Inclination
98.9623°
RAAN
261.3679°
Arg. of periapsis
98.5319°
True anomaly
261.5855°
Mean anomaly
262.1788°
Eccentric anomaly
261.88209°
Mean motion
3.54891 °/min
Orbital period
101.44 mins
BSTAR
0.0020713

Documentation

Showing up to 5 results
|